STARLINK-2081, 47366

Orbit data source: Space-Track

STARLINK-2081, 47366 is a payload satellite owned by SpaceX/Seattle (US) in LEO that was launched on Wed, 20 Jan 2021 UTC via an FALCON 9 launch vehicle from the Air Force Eastern Test Range (AFETR). Payload-class satellites include a variety of spacecraft equipped with specific instruments for various scientific and technological missions. These include communications satellites like Starlink; space stations such as the ISS; scientific satellites like the Hubble; Earth observation satellites from companies like Planet Labs, Umbra, and HawkEye 360; GPS; miniature CubeSats for education and research; and military/defense satellites.

Loading next visibility...
Identifier
47366, 2021-005T
Orbit
LEO
Country
Flag of USUS
Related business
Manufacturer
SpaceX/Seattle
Mission
Operational Commercial Communications
Bus & Motor
STARLINK, Unknown motor
Mass
260 kg wet, ~248 kg dry
Launch date (UTC)
2021-01-20 (5 years ago)
Launch vehicle
FALCON 9
Launch site
Air Force Eastern Test Range (AFETR)
Object type
Payload
Rocket body
Debris
Shape & HBR
Box + 1 Pan, 10.1 m
Radar Cross Section
13.562 m², Large (>1 m²)

Expand to show TLE details & history
Last TLE update: 2 days ago

TLE from 2 days ago
0 STARLINK-2081
1 47366U 21005T   26171.36631257 -.00001123  00000-0 -24450-4 0  9992
2 47366  53.1595 304.9224 0000544  81.1075 278.9988 15.31701741298757
Epoch: 2026-06-20T08:47Z
TLE epoch observation values (Epoch: 2026-06-20T08:47:29.406Z)
Latitude
Longitude
-95.53209°
Altitude
471.577 km
Speed
7.632 km/s
True Right ascension
20h 19m 41s
True Declination
0° 00' 00"
Sunlit
Object was in full shadow at epoch
Visualization orbit readout
Latitude
Unknown
Longitude
Unknown
Altitude
Unknown
Speed
Unknown
Apparent Right ascension
Unknown
Apparent Declination
Unknown
Sunlit
N/A
Visualization observer readout
Local Sidereal Time
21:23:53
Azimuth
Unknown
Elevation
Unknown
Doppler factor
Unknown
Orbital elements
Apogee altitude
471.364 km
Perigee altitude
470.619 km
Semi-major axis
6,849.128 km
Eccentricity
0.00005
Inclination
53.1595°
RAAN
304.9224°
Arg. of periapsis
81.1075°
True anomaly
278.99264°
Mean anomaly
278.9988°
Eccentric anomaly
278.99572°
Mean motion
3.82904 °/min
Orbital period
94.02 mins
BSTAR
-0.00002445
Loading maneuver chart data...
Computing Atmospheric mass density...
Loading historical data...
Loading historical data...
Loading historical data...
Loading historical data...
Loading historical data...
Loading historical data...
Loading historical data...

Documentation

Showing up to 5 results
|